When you browse on this site, cookies collect data to enhance your experience and personalize the content and advertising you see.
Visit our Privacy Policy to learn more. By continuing to use the site, you agree to this use of cookies and data.
  • In Netherlands
  • List of Countries
  • For 7 days
  • Water Temperature
  • Satellite Maps
  • Weather Map
  • Weather Widgets
  • user-avatar
    Login

    Hourly Weather Zaranj

    Today, 25 March, Monday

    Time Temperature Precipitation Wind Pressure Humidity
    00:00 +23°C° 0 mm 1 mps 718 mmHg 42%
    01:00 +23°C° 0 mm 1 mps 718 mmHg 43%
    02:00 +23°C° 0 mm 2 mps 718 mmHg 43%
    03:00 +21°C° 0 mm 2 mps 718 mmHg 44%
    04:00 +21°C° 0 mm 3 mps 718 mmHg 45%
    05:00 +21°C° 0 mm 3 mps 718 mmHg 46%
    06:00 +21°C° 0 mm 3 mps 718 mmHg 47%
    07:00 +21°C° 0 mm 3 mps 719 mmHg 48%
    08:00 +24°C° 0 mm 3 mps 719 mmHg 44%
    09:00 +25°C° 0 mm 3 mps 719 mmHg 40%
    10:00 +27°C° 0 mm 3 mps 719 mmHg 35%
    11:00 +28°C° 0 mm 4 mps 719 mmHg 32%
    12:00 +29°C° 0 mm 4 mps 719 mmHg 30%
    13:00 +32°C° 0 mm 5 mps 718 mmHg 27%
    14:00 +32°C° 0 mm 5 mps 718 mmHg 25%
    15:00 +33°C° 0 mm 4 mps 718 mmHg 24%
    16:00 +33°C° 0 mm 4 mps 717 mmHg 23%
    17:00 +32°C° 0 mm 4 mps 717 mmHg 24%
    18:00 +32°C° 0 mm 4 mps 717 mmHg 25%
    19:00 +30°C° 0 mm 4 mps 717 mmHg 26%
    20:00 +30°C° 0 mm 4 mps 717 mmHg 27%
    21:00 +29°C° 0 mm 4 mps 718 mmHg 27%
    22:00 +29°C° 0 mm 4 mps 718 mmHg 28%
    23:00 +28°C° 0 mm 4 mps 718 mmHg 29%

    Tomorrow, 26 March, Tuesday

    Time Temperature Precipitation Wind Pressure Humidity
    00:00 +28°C° 0 mm 4 mps 717 mmHg 30%
    01:00 +28°C° 0 mm 5 mps 717 mmHg 30%
    02:00 +28°C° 0 mm 5 mps 717 mmHg 32%
    03:00 +27°C° 0 mm 5 mps 716 mmHg 33%
    04:00 +27°C° 0 mm 5 mps 716 mmHg 34%
    05:00 +27°C° 0 mm 4 mps 717 mmHg 34%
    06:00 +27°C° 0 mm 4 mps 717 mmHg 35%
    07:00 +27°C° 0 mm 3 mps 717 mmHg 36%
    08:00 +28°C° 0 mm 4 mps 718 mmHg 34%
    09:00 +30°C° 0 mm 4 mps 718 mmHg 32%
    10:00 +32°C° 0 mm 5 mps 719 mmHg 30%
    11:00 +33°C° 0 mm 5 mps 719 mmHg 27%
    12:00 +34°C° 0 mm 5 mps 719 mmHg 24%
    13:00 +35°C° 0 mm 5 mps 718 mmHg 21%
    14:00 +35°C° 0 mm 6 mps 718 mmHg 21%
    15:00 +35°C° 0 mm 7 mps 717 mmHg 20%
    16:00 +35°C° 0 mm 8 mps 717 mmHg 20%
    17:00 +34°C° 0 mm 7 mps 717 mmHg 21%
    18:00 +33°C° 0 mm 6 mps 717 mmHg 22%
    19:00 +33°C° 0 mm 5 mps 717 mmHg 23%
    20:00 +32°C° 0 mm 5 mps 717 mmHg 23%
    21:00 +32°C° 0 mm 5 mps 717 mmHg 23%
    22:00 +32°C° 0 mm 5 mps 718 mmHg 23%
    23:00 +30°C° 0 mm 5 mps 717 mmHg 24%

    Day after tomorrow, 27 March, Wednesday

    Time Temperature Precipitation Wind Pressure Humidity
    00:00 +29°C° 0 mm 4 mps 717 mmHg 24%
    01:00 +29°C° 0 mm 4 mps 717 mmHg 24%
    02:00 +29°C° 0 mm 3 mps 717 mmHg 25%
    03:00 +28°C° 0 mm 3 mps 717 mmHg 25%
    04:00 +28°C° 0 mm 3 mps 716 mmHg 25%
    05:00 +28°C° 0 mm 4 mps 717 mmHg 25%
    06:00 +28°C° 0 mm 4 mps 717 mmHg 25%
    07:00 +28°C° 0 mm 5 mps 717 mmHg 25%
    08:00 +29°C° 0 mm 6 mps 718 mmHg 24%
    09:00 +32°C° 0 mm 8 mps 718 mmHg 22%
    10:00 +33°C° 0 mm 9 mps 719 mmHg 20%
    11:00 +33°C° 0 mm 10 mps 718 mmHg 21%
    12:00 +34°C° 0 mm 10 mps 718 mmHg 22%
    13:00 +34°C° 0 mm 11 mps 718 mmHg 23%
    14:00 +34°C° 0 mm 11 mps 717 mmHg 21%
    15:00 +36°C° 0 mm 10 mps 717 mmHg 20%
    16:00 +35°C° 0 mm 9 mps 717 mmHg 19%
    17:00 +34°C° 0 mm 8 mps 717 mmHg 21%
    18:00 +33°C° 0 mm 8 mps 716 mmHg 23%
    19:00 +32°C° 0 mm 7 mps 716 mmHg 25%
    20:00 +30°C° 0 mm 6 mps 717 mmHg 27%
    21:00 +29°C° 0 mm 6 mps 717 mmHg 29%
    22:00 +29°C° 0 mm 6 mps 717 mmHg 30%
    23:00 +28°C° 0 mm 5 mps 717 mmHg 32%

    28 March, Thursday

    Time Temperature Precipitation Wind Pressure Humidity
    00:00 +27°C° 0 mm 4 mps 717 mmHg 33%
    01:00 +26°C° 0 mm 4 mps 716 mmHg 35%
    02:00 +25°C° 0 mm 3 mps 716 mmHg 37%
    03:00 +25°C° 0 mm 2 mps 716 mmHg 39%
    04:00 +24°C° 0 mm 1 mps 716 mmHg 40%
    05:00 +24°C° 0 mm 1 mps 717 mmHg 40%
    06:00 +25°C° 0 mm 2 mps 717 mmHg 40%
    07:00 +25°C° 0 mm 2 mps 718 mmHg 39%
    08:00 +26°C° 0 mm 1 mps 718 mmHg 36%
    09:00 +28°C° 0 mm 1 mps 719 mmHg 33%
    10:00 +29°C° 0 mm 1 mps 719 mmHg 29%
    11:00 +30°C° 0 mm 1 mps 718 mmHg 27%
    12:00 +31°C° 0 mm 1 mps 718 mmHg 25%
    13:00 +32°C° 0 mm 1 mps 717 mmHg 22%
    14:00 +32°C° 0 mm 1 mps 716 mmHg 21%
    15:00 +33°C° 0 mm 1 mps 716 mmHg 20%
    16:00 +33°C° 0 mm 1 mps 715 mmHg 19%
    17:00 +34°C° 0 mm 2 mps 715 mmHg 20%
    18:00 +33°C° 0 mm 3 mps 715 mmHg 21%
    19:00 +31°C° 0 mm 3 mps 715 mmHg 21%
    20:00 +31°C° 0 mm 3 mps 715 mmHg 22%
    21:00 +30°C° 0 mm 3 mps 716 mmHg 24%
    22:00 +29°C° 0 mm 2 mps 716 mmHg 25%
    23:00 +28°C° 0 mm 2 mps 715 mmHg 26%

    29 March, Friday

    Time Temperature Precipitation Wind Pressure Humidity
    00:00 +28°C° 0 mm 3 mps 715 mmHg 28%
    01:00 +27°C° 0 mm 3 mps 714 mmHg 29%
    02:00 +26°C° 0 mm 4 mps 714 mmHg 32%
    03:00 +26°C° 0 mm 4 mps 714 mmHg 34%
    04:00 +25°C° 0 mm 4 mps 714 mmHg 37%
    05:00 +23°C° 0 mm 6 mps 714 mmHg 41%
    06:00 +22°C° 0 mm 8 mps 715 mmHg 45%
    07:00 +21°C° 0 mm 10 mps 715 mmHg 49%
    08:00 +22°C° 0 mm 9 mps 716 mmHg 45%
    09:00 +23°C° 0 mm 9 mps 717 mmHg 42%
    10:00 +24°C° 0 mm 8 mps 717 mmHg 38%
    11:00 +26°C° 0 mm 8 mps 717 mmHg 32%
    12:00 +27°C° 0 mm 7 mps 718 mmHg 26%
    13:00 +29°C° 0 mm 7 mps 718 mmHg 20%
    14:00 +29°C° 0 mm 7 mps 717 mmHg 21%
    15:00 +29°C° 0 mm 7 mps 717 mmHg 21%
    16:00 +28°C° 0 mm 7 mps 717 mmHg 22%
    17:00 +27°C° 0 mm 8 mps 718 mmHg 27%
    18:00 +24°C° 0 mm 10 mps 718 mmHg 32%
    19:00 +22°C° 0 mm 11 mps 719 mmHg 38%
    20:00 +21°C° 0 mm 10 mps 719 mmHg 38%
    21:00 +21°C° 0 mm 9 mps 720 mmHg 39%
    22:00 +20°C° 0 mm 8 mps 720 mmHg 40%
    23:00 +20°C° 0 mm 7 mps 720 mmHg 41%

    30 March, Saturday

    Time Temperature Precipitation Wind Pressure Humidity
    00:00 +18°C° 0 mm 7 mps 720 mmHg 43%
    01:00 +19°C° 0 mm 6 mps 720 mmHg 44%
    02:00 +17°C° 0 mm 6 mps 720 mmHg 45%
    03:00 +17°C° 0 mm 5 mps 720 mmHg 46%
    04:00 +17°C° 0 mm 5 mps 720 mmHg 47%
    05:00 +18°C° 0 mm 4 mps 720 mmHg 47%
    06:00 +18°C° 0 mm 4 mps 721 mmHg 47%
    07:00 +18°C° 0 mm 3 mps 721 mmHg 46%
    08:00 +19°C° 0 mm 3 mps 721 mmHg 42%
    09:00 +20°C° 0 mm 3 mps 721 mmHg 37%
    10:00 +21°C° 0 mm 3 mps 721 mmHg 33%
    11:00 +24°C° 0 mm 2 mps 721 mmHg 30%
    12:00 +25°C° 0 mm 2 mps 720 mmHg 27%
    13:00 +26°C° 0 mm 1 mps 720 mmHg 23%
    14:00 +27°C° 0 mm 1 mps 719 mmHg 22%
    15:00 +27°C° 0 mm 1 mps 719 mmHg 21%
    16:00 +28°C° 0 mm 1 mps 718 mmHg 20%
    17:00 +28°C° 0 mm 1 mps 719 mmHg 20%
    18:00 +27°C° 0 mm 1 mps 719 mmHg 21%
    19:00 +27°C° 0 mm 1 mps 719 mmHg 21%
    20:00 +26°C° 0 mm 2 mps 719 mmHg 22%
    21:00 +26°C° 0 mm 2 mps 719 mmHg 22%
    22:00 +25°C° 0 mm 2 mps 719 mmHg 22%
    23:00 +25°C° 0 mm 2 mps 719 mmHg 23%
    Show more